Hourly Weather Roundup
Issued by NWS

Home | Current Version | Previous Version | Text Only | Print | Product List | Glossary On
Versions: 1 2 3 4 5 6 7 8 9 10 11 12 13 14 15 16 17 18 19 20 21 22 23 24 25 26 27 28 29 30 31 32 33 34 35 36 37 38 39 40 41 42 43 44 45 46 47 48 49 50
000
NZUS43 KILX 300310
HWRCRS

CRS HOURLY WEATHER ROUNDUP
NATIONAL WEATHER SERVICE, LINCOLN IL
1000 PM CDT MON JUN 29 2015


CITY           SKY/WX    TMP DP  RH WIND       PRES   REMARKS
CHAMPAIGN      CLEAR     68  64  87 SW5       29.84R
LAWRENCEVILLE  MOCLDY    71  65  81 W5        29.86R
PEORIA         MOCLDY    72  66  81 SW5       29.82R
SPRINGFIELD    CLEAR     70  67  90 SW5       29.84S
$$


CITY           SKY/WX    TMP DP  RH WIND       PRES   REMARKS
BLOOMINGTON    CLEAR     70  65  84 SW6       29.83S
DECATUR        CLEAR     69  64  84 SW6       29.85R
EFFINGHAM      PTCLDY    68  64  88 CALM      29.88R
FLORA          MOCLDY    70  65  82 W3        29.87S
GALESBURG      MOCLDY    70  65  84 SW7       29.82S THUNDER
JACKSONVILLE   CLEAR     69  67  92 SW5       29.85R
LACON          PTCLDY    71  66  84 CALM      29.80R
LINCOLN        CLEAR     72  65  80 CALM      29.84R
LITCHFIELD     PTCLDY    68  64  89 CALM      29.87R

CITY           SKY/WX    TMP DP  RH WIND       PRES   REMARKS
MACOMB         CLEAR     65  64  94 W5        29.85S
MATTOON        CLEAR     69  65  86 SW3       29.85R
MOLINE         TSTM      67  62  84 NW28G46   29.84R
OLNEY          MOCLDY    70  66  88 W3        29.87R
PARIS          CLEAR     69  65  89 SW8       29.85R
PONTIAC        PTCLDY    68  66  92 CALM      29.82R
QUINCY         CLEAR     68  65  90 SW5       29.86R
RANTOUL        CLEAR     69  67  93 SE3       29.83S
ROBINSON       MOCLDY    68  65  89 W5        29.86R
TAYLORVILLE    PTCLDY    66  64  94 S3        29.85S
TERRE HAUTE    CLEAR     71  65  81 W7        29.84R
$$


CITY           SKY/WX    TMP DP  RH WIND       PRES   REMARKS
BURLINGTON     CLEAR     69  68  96 SW3       29.83R
CHICAGO        PTCLDY    66  64  93 SW3       29.80R
DES MOINES     CLOUDY    73  65  75 W3        29.86S
EVANSVILLE     CLEAR     73  64  73 W3        29.87R
INDIANAPOLIS   MOCLDY    68  62  81 W7        29.83R
KANSAS CITY    MOCLDY    79  63  57 CALM      29.92R HX  80
MILWAUKEE      MOCLDY    64  60  87 S8        29.79R
ST LOUIS       MOCLDY    76  66  71 SW3       29.87R
$$




USA.gov is the U.S. government's official web portal to all federal, state and local government web resources and services.